Terminal Aerodrome Forecast
Issued by NWS Chicago, IL

Home | Current Version | Previous Version | Graphics & Text | Print | Product List | Glossary On
Versions: 1 2 3 4 5 6 7 8 9 10 11 12 13 14 15 16 17 18 19 20 21 22 23 24 25 26 27 28 29 30
835
FTUS43 KLOT 190758 AAA
TAFRFD
TAF AMD
KRFD 190758Z 1908/2006 18010KT P6SM VCSH SCT020 BKN040
     FM191000 19008KT 6SM BR VCSH SCT008 BKN012 OVC020
      TEMPO 1911/1913 3/4SM BR BKN003 OVC007
     FM191300 15006KT 1/2SM -SHRA FG OVC003
      TEMPO 1913/1917 1/4SM -DZ FG OVC002
     FM192200 20014G21KT 1SM -RA BR OVC004 WS020/22050KT
     FM200200 19012G18KT 1 1/2SM -SHRA BR OVC006 WS020/22050KT=

USA.gov is the U.S. government's official web portal to all federal, state and local government web resources and services.